User: anonymous   Login
Location: Unspecified
(0.0000°N, 0.0000°E)
Time: 03:18:16
(UTC+02:00)
Language:

ARIANE DEB (SPELDA) - Orbit

View from above orbital plane
View from above orbital plane
View from above satellite
View from above satellite

Ground track
Ground track

The orbit data is extracted from the following two-line orbital elements,

1 27402U 02015D   17086.44455060 +.00001024 +00000-0 +11923-2 0  9998
2 27402 003.3176 153.0639 7091027 255.4211 022.6108 02.48598705132058
Epoch (UTC): 27 March 2017 10:40:09
Eccentricity: 0.7091027
inclination: 3.3176°
perigee height: 318 km
apogee height: 32962 km
right ascension of ascending node: 153.0639°
argument of perigee: 255.4211°
revolutions per day: 2.48598705
mean anomaly at epoch: 22.6108°
orbit number at epoch: 13205

The dashed part of the orbit path shows where the satellite is in the earth's shadow,  

DLR